DEWLS EDRK-EDFH

Flight info

Callsign DEWLS
Flight time 0h 15m
Altitude 3000
Route VFR
Aircraft S22T/L-V/N

Departure

Time 2026-05-09 17:39
Airport Koblenz-Winningen Airfield (EDRK)

Arrival

Time 2026-05-09 17:54
Airport Frankfurt-Hahn Airport (EDFH)
Time Latitude Longitude Altitude Speed Heading
2026-05-09 17:35 50.32310 7.52546 650 ft 0 kts 148°
2026-05-09 17:37 50.32294 7.52511 650 ft 8 kts 270°
2026-05-09 17:37 50.32279 7.52401 651 ft 12 kts 256°
2026-05-09 17:38 50.32278 7.52349 652 ft 0 kts 308°
2026-05-09 17:38 50.32288 7.52331 652 ft 7 kts 317°
2026-05-09 17:38 50.32343 7.52366 650 ft 17 kts 55°
2026-05-09 17:39 50.32828 7.53476 884 ft 86 kts 52°
2026-05-09 17:39 50.33208 7.54269 1183 ft 94 kts 51°
2026-05-09 17:39 50.33782 7.54368 1359 ft 107 kts 321°
2026-05-09 17:39 50.34323 7.53578 1777 ft 107 kts 314°
2026-05-09 17:40 50.34888 7.52822 2210 ft 106 kts 319°
2026-05-09 17:40 50.34954 7.51760 2438 ft 124 kts 227°
2026-05-09 17:40 50.34183 7.51182 2805 ft 124 kts 199°
2026-05-09 17:40 50.33303 7.50736 2887 ft 147 kts 195°
2026-05-09 17:41 50.32312 7.50027 2820 ft 165 kts 206°
2026-05-09 17:41 50.31250 7.49315 2936 ft 165 kts 199°
2026-05-09 17:41 50.30151 7.48715 2946 ft 171 kts 205°
2026-05-09 17:41 50.29400 7.47318 2945 ft 174 kts 239°
2026-05-09 17:42 50.28736 7.45725 2957 ft 176 kts 233°
2026-05-09 17:42 50.27976 7.44218 2957 ft 177 kts 229°
2026-05-09 17:42 50.27147 7.42785 2956 ft 178 kts 225°
2026-05-09 17:42 50.26236 7.41478 2954 ft 178 kts 215°
2026-05-09 17:43 50.25198 7.40420 2952 ft 178 kts 212°
2026-05-09 17:43 50.24154 7.39364 2956 ft 178 kts 212°
2026-05-09 17:43 50.23114 7.38312 2956 ft 179 kts 212°
2026-05-09 17:43 50.22070 7.37252 2956 ft 179 kts 212°
2026-05-09 17:44 50.21030 7.36194 2954 ft 179 kts 212°
2026-05-09 17:44 50.20001 7.35147 2950 ft 179 kts 212°
2026-05-09 17:44 50.18960 7.34087 2952 ft 179 kts 212°
2026-05-09 17:44 50.17918 7.33026 2952 ft 179 kts 212°
2026-05-09 17:45 50.16875 7.31965 2951 ft 179 kts 212°
2026-05-09 17:45 50.15834 7.30907 2951 ft 179 kts 212°
2026-05-09 17:45 50.14791 7.29845 2953 ft 179 kts 212°
2026-05-09 17:45 50.13751 7.28785 2952 ft 179 kts 212°
2026-05-09 17:46 50.13061 7.28086 2949 ft 179 kts 212°
2026-05-09 17:46 50.11984 7.27115 2954 ft 179 kts 207°
2026-05-09 17:46 50.10520 7.25943 2949 ft 179 kts 206°
2026-05-09 17:46 50.09416 7.25060 2947 ft 179 kts 206°
2026-05-09 17:47 50.08325 7.24181 2782 ft 175 kts 207°
2026-05-09 17:47 50.07224 7.23294 2429 ft 180 kts 207°
2026-05-09 17:47 50.06497 7.22710 2310 ft 175 kts 207°
2026-05-09 17:47 50.05416 7.21839 1958 ft 173 kts 207°
2026-05-09 17:48 50.04422 7.21036 1935 ft 149 kts 207°
2026-05-09 17:48 50.03553 7.20334 1934 ft 133 kts 207°
2026-05-09 17:48 50.02769 7.19703 1934 ft 122 kts 207°
2026-05-09 17:48 50.02042 7.19120 1933 ft 114 kts 207°
2026-05-09 17:49 50.01304 7.18844 1910 ft 110 kts 174°
2026-05-09 17:49 50.00594 7.19330 1826 ft 114 kts 138°
2026-05-09 17:49 49.99993 7.20110 1904 ft 110 kts 143°
2026-05-09 17:49 49.99376 7.20765 1990 ft 108 kts 141°
2026-05-09 17:50 49.98797 7.21463 2073 ft 105 kts 144°
2026-05-09 17:50 49.97542 7.22826 2250 ft 116 kts 144°
2026-05-09 17:50 49.96860 7.23534 2336 ft 119 kts 155°
2026-05-09 17:51 49.96045 7.23696 2467 ft 118 kts 188°
2026-05-09 17:51 49.95254 7.23277 2497 ft 121 kts 206°
2026-05-09 17:51 49.94559 7.22660 2620 ft 113 kts 208°
2026-05-09 17:51 49.93896 7.22091 2501 ft 103 kts 209°
2026-05-09 17:52 49.93307 7.21552 2373 ft 97 kts 212°
2026-05-09 17:52 49.92744 7.21017 2243 ft 96 kts 208°
2026-05-09 17:52 49.92144 7.21019 2300 ft 89 kts 148°
2026-05-09 17:52 49.91699 7.21750 2223 ft 99 kts 118°
2026-05-09 17:53 49.91539 7.22717 2190 ft 96 kts 53°
2026-05-09 17:53 49.92021 7.23494 2057 ft 100 kts 40°
2026-05-09 17:53 49.92573 7.24108 1902 ft 95 kts 32°
2026-05-09 17:53 49.93090 7.24622 1779 ft 82 kts 30°
2026-05-09 17:54 49.93546 7.25076 1682 ft 73 kts 31°
2026-05-09 17:54 49.93928 7.25454 1665 ft 55 kts 33°
2026-05-09 17:54 49.94221 7.25748 1666 ft 46 kts 31°
2026-05-09 17:54 49.94473 7.25995 1652 ft 40 kts 32°
2026-05-09 17:55 49.94570 7.26138 1650 ft 13 kts 115°
2026-05-09 17:55 49.94548 7.26194 1650 ft 4 kts 115°
2026-05-09 17:55 49.94541 7.26211 1650 ft 0 kts 123°
2026-05-09 17:55 49.94512 7.26283 1649 ft 20 kts 122°
2026-05-09 17:56 49.94425 7.26475 1649 ft 21 kts 156°
2026-05-09 17:56 49.94340 7.26503 1650 ft 0 kts 121°